TimeCST,TemperatureF,Dew PointF,Humidity,Sea Level PressureIn,VisibilityMPH,Wind Direction,Wind SpeedMPH,Gust SpeedMPH,PrecipitationIn,Events,Conditions,WindDirDegrees,DateUTC
12:15 AM,17.6,5.0,58,30.15,10.0,SW,6.9,-,N/A,,Clear,220,2012-02-13 06:15:00
12:35 AM,15.8,3.2,58,30.14,10.0,SW,8.1,-,N/A,,Clear,220,2012-02-13 06:35:00
12:55 AM,14.0,3.2,62,30.14,10.0,SW,9.2,-,N/A,,Clear,220,2012-02-13 06:55:00
1:15 AM,15.8,3.2,58,30.14,10.0,SSW,9.2,-,N/A,,Clear,210,2012-02-13 07:15:00
1:35 AM,15.8,5.0,62,30.14,10.0,SSW,9.2,-,N/A,,Clear,210,2012-02-13 07:35:00
1:55 AM,15.8,3.2,58,30.13,10.0,SSW,8.1,-,N/A,,Clear,210,2012-02-13 07:55:00
2:15 AM,14.0,3.2,62,30.13,10.0,SW,8.1,-,N/A,,Clear,220,2012-02-13 08:15:00
2:35 AM,14.0,3.2,62,30.13,10.0,SW,8.1,-,N/A,,Clear,220,2012-02-13 08:35:00
2:55 AM,12.2,3.2,67,30.12,10.0,SW,8.1,-,N/A,,Clear,220,2012-02-13 08:55:00
3:15 AM,14.0,3.2,62,30.12,10.0,SW,5.8,-,N/A,,Clear,220,2012-02-13 09:15:00
3:35 AM,14.0,3.2,62,30.12,10.0,SW,5.8,-,N/A,,Clear,220,2012-02-13 09:35:00
3:55 AM,14.0,3.2,62,30.11,10.0,SSW,6.9,-,N/A,,Clear,210,2012-02-13 09:55:00
4:15 AM,14.0,3.2,62,30.10,10.0,SSW,5.8,-,N/A,,Clear,210,2012-02-13 10:15:00
4:55 AM,12.2,3.2,67,30.10,10.0,SSW,5.8,-,N/A,,Clear,210,2012-02-13 10:55:00
5:15 AM,12.2,3.2,67,30.09,10.0,SSW,4.6,-,N/A,,Clear,200,2012-02-13 11:15:00
5:35 AM,12.2,3.2,67,30.09,10.0,SSW,4.6,-,N/A,,Clear,200,2012-02-13 11:35:00
5:55 AM,12.2,3.2,67,30.09,10.0,South,4.6,-,N/A,,Clear,190,2012-02-13 11:55:00
6:15 AM,12.2,3.2,67,30.09,10.0,SSW,5.8,-,N/A,,Clear,200,2012-02-13 12:15:00
6:35 AM,12.2,3.2,67,30.08,10.0,South,4.6,-,N/A,,Scattered Clouds,190,2012-02-13 12:35:00
6:55 AM,12.2,3.2,67,30.08,10.0,South,3.5,-,N/A,,Mostly Cloudy,190,2012-02-13 12:55:00
7:15 AM,17.6,5.0,58,30.08,10.0,South,3.5,-,N/A,,Overcast,190,2012-02-13 13:15:00
7:35 AM,17.6,5.0,58,30.08,10.0,South,5.8,-,N/A,,Overcast,170,2012-02-13 13:35:00
7:55 AM,19.4,6.8,58,30.08,10.0,South,6.9,-,N/A,,Overcast,190,2012-02-13 13:55:00
8:15 AM,19.4,6.8,58,30.07,10.0,South,6.9,-,N/A,,Overcast,190,2012-02-13 14:15:00
8:35 AM,21.2,5.0,50,30.07,10.0,South,9.2,-,N/A,,Overcast,190,2012-02-13 14:35:00
8:55 AM,23.0,8.6,54,30.07,10.0,South,8.1,-,N/A,,Overcast,190,2012-02-13 14:55:00
9:15 AM,23.0,8.6,54,30.06,10.0,South,9.2,-,N/A,,Overcast,190,2012-02-13 15:15:00
9:35 AM,24.8,8.6,50,30.06,10.0,South,8.1,-,N/A,,Overcast,190,2012-02-13 15:35:00
9:55 AM,26.6,8.6,47,30.05,10.0,South,8.1,-,N/A,,Overcast,190,2012-02-13 15:55:00
10:15 AM,26.6,8.6,47,30.04,10.0,South,10.4,-,N/A,,Overcast,180,2012-02-13 16:15:00
10:35 AM,28.4,8.6,43,30.03,10.0,South,8.1,-,N/A,,Overcast,180,2012-02-13 16:35:00
10:55 AM,28.4,8.6,43,30.03,10.0,South,8.1,-,N/A,,Overcast,190,2012-02-13 16:55:00
11:15 AM,28.4,8.6,43,30.02,10.0,South,8.1,-,N/A,,Overcast,170,2012-02-13 17:15:00
11:35 AM,30.2,10.4,44,30.01,10.0,South,8.1,-,N/A,,Overcast,180,2012-02-13 17:35:00
11:55 AM,30.2,8.6,40,29.99,10.0,South,11.5,-,N/A,,Overcast,180,2012-02-13 17:55:00
12:15 PM,30.2,8.6,40,29.98,10.0,South,10.4,-,N/A,,Overcast,190,2012-02-13 18:15:00
12:35 PM,32.0,10.4,41,29.97,10.0,South,15.0,-,N/A,,Overcast,180,2012-02-13 18:35:00
12:55 PM,32.0,10.4,41,29.96,10.0,South,12.7,-,N/A,,Overcast,180,2012-02-13 18:55:00
1:15 PM,32.0,14.0,48,29.96,10.0,SSW,18.4,-,N/A,,Mostly Cloudy,200,2012-02-13 19:15:00
1:35 PM,30.2,21.2,69,29.95,5.0,South,12.7,-,N/A,,Overcast,190,2012-02-13 19:35:00
1:55 PM,30.2,23.0,75,29.94,3.0,South,10.4,-,N/A,Snow,Light Snow,180,2012-02-13 19:55:00
2:15 PM,30.2,23.0,75,29.94,1.8,South,11.5,-,N/A,Snow,Light Snow,180,2012-02-13 20:15:00
2:35 PM,28.4,24.8,86,29.93,2.0,SSE,9.2,-,N/A,Snow,Light Snow,160,2012-02-13 20:35:00
2:55 PM,28.4,26.6,93,29.92,3.0,South,9.2,-,N/A,Snow,Light Snow,170,2012-02-13 20:55:00
3:35 PM,30.2,24.8,80,29.91,5.0,South,15.0,-,N/A,Snow,Light Snow,170,2012-02-13 21:35:00
3:55 PM,30.2,23.0,75,29.90,7.0,South,13.8,-,N/A,Snow,Light Snow,180,2012-02-13 21:55:00
4:15 PM,30.2,26.6,86,29.89,7.0,South,9.2,-,N/A,Snow,Light Snow,170,2012-02-13 22:15:00
4:35 PM,28.4,26.6,93,29.89,3.0,SSE,9.2,-,N/A,Snow,Light Snow,150,2012-02-13 22:35:00
4:55 PM,28.4,28.4,100,29.88,3.0,SSE,8.1,-,N/A,Snow,Light Snow,160,2012-02-13 22:55:00
5:15 PM,28.4,28.4,100,29.87,3.0,SSE,9.2,-,N/A,Snow,Light Snow,150,2012-02-13 23:15:00
5:35 PM,28.4,28.4,100,29.87,2.0,SSE,8.1,-,N/A,Snow,Light Snow,150,2012-02-13 23:35:00
5:55 PM,28.4,28.4,100,29.87,2.0,SE,6.9,-,N/A,Snow,Light Snow,140,2012-02-13 23:55:00
6:15 PM,28.4,28.4,100,29.87,2.0,SE,8.1,-,N/A,Snow,Light Snow,140,2012-02-14 00:15:00
6:35 PM,28.4,28.4,100,29.87,5.0,SE,6.9,-,N/A,,Overcast,140,2012-02-14 00:35:00
6:55 PM,28.4,28.4,100,29.86,3.0,SE,6.9,-,N/A,Snow,Light Snow,140,2012-02-14 00:55:00
7:15 PM,28.4,28.4,100,29.86,3.0,SE,8.1,-,N/A,Snow,Light Snow,140,2012-02-14 01:15:00
7:35 PM,28.4,28.4,100,29.85,5.0,SE,8.1,-,N/A,Snow,Light Snow,140,2012-02-14 01:35:00
7:55 PM,28.4,28.4,100,29.85,5.0,SE,5.8,-,N/A,Snow,Light Snow,130,2012-02-14 01:55:00
8:15 PM,28.4,28.4,100,29.84,1.5,SE,6.9,-,N/A,Snow,Light Snow,140,2012-02-14 02:15:00
8:35 PM,28.4,28.4,100,29.84,2.5,SE,8.1,-,N/A,Snow,Light Snow,140,2012-02-14 02:35:00
8:55 PM,28.4,28.4,100,29.84,3.0,SSE,8.1,-,N/A,Snow,Light Snow,150,2012-02-14 02:55:00
9:15 PM,28.4,28.4,100,29.83,5.0,SSE,10.4,-,N/A,Snow,Light Snow,150,2012-02-14 03:15:00
9:35 PM,30.2,28.4,93,29.83,7.0,South,12.7,-,N/A,Snow,Light Snow,170,2012-02-14 03:35:00
9:55 PM,30.2,28.4,93,29.82,10.0,SSE,12.7,-,N/A,,Overcast,160,2012-02-14 03:55:00
10:15 PM,30.2,28.4,93,29.82,10.0,SSE,13.8,-,N/A,Snow,Light Snow,160,2012-02-14 04:15:00
10:35 PM,30.2,28.4,93,29.81,7.0,SSE,9.2,-,N/A,Snow,Light Snow,160,2012-02-14 04:35:00
10:55 PM,28.4,28.4,100,29.81,10.0,SSE,12.7,-,N/A,Snow,Light Snow,160,2012-02-14 04:55:00
11:15 PM,28.4,28.4,100,29.80,10.0,South,12.7,-,N/A,,Overcast,170,2012-02-14 05:15:00
11:55 PM,28.4,28.4,100,29.80,5.0,South,9.2,-,N/A,,Overcast,170,2012-02-14 05:55:00